• Em Portugal
  • Lista de países
  • Para 7 dias
  • Temperatura da água
  • Mapas de satélite
  • Mapa do tempo
  • Widgets de tempo
  • user-avatar
    Iniciar Sessão

    Previsão horária em Alol

    Hoje, 20 Setembro, Quinta-feira

    Tempo Temperatura Precipitação Vento Pressão Humidade
    00:00 +16°C° 0 mm 2 m/s 742 mmHg 94%
    01:00 +15°C° 0 mm 2 m/s 743 mmHg 96%
    02:00 +14°C° 0 mm 2 m/s 743 mmHg 97%
    03:00 +14°C° 0 mm 2 m/s 743 mmHg 97%
    04:00 +14°C° 0 mm 2 m/s 743 mmHg 98%
    05:00 +13°C° 0 mm 2 m/s 743 mmHg 98%
    06:00 +14°C° 0 mm 2 m/s 744 mmHg 94%
    07:00 +14°C° 0 mm 2 m/s 744 mmHg 91%
    08:00 +14°C° 0 mm 3 m/s 744 mmHg 88%
    09:00 +17°C° 0 mm 3 m/s 744 mmHg 79%
    10:00 +19°C° 0 mm 3 m/s 744 mmHg 71%
    11:00 +21°C° 0 mm 3 m/s 744 mmHg 62%
    12:00 +22°C° 0 mm 3 m/s 744 mmHg 59%
    13:00 +22°C° 0 mm 3 m/s 744 mmHg 56%
    14:00 +24°C° 0 mm 3 m/s 744 mmHg 52%
    15:00 +22°C° 0 mm 3 m/s 744 mmHg 57%
    16:00 +23°C° 0 mm 2 m/s 744 mmHg 62%
    17:00 +21°C° 0 mm 2 m/s 744 mmHg 67%
    18:00 +19°C° 0 mm 2 m/s 744 mmHg 72%
    19:00 +18°C° 0 mm 2 m/s 744 mmHg 77%
    20:00 +16°C° 0 mm 2 m/s 744 mmHg 81%
    21:00 +16°C° 0 mm 2 m/s 744 mmHg 84%
    22:00 +16°C° 0 mm 2 m/s 744 mmHg 86%
    23:00 +16°C° 0 mm 2 m/s 744 mmHg 89%

    Amanhã, 21 Setembro, Sexta-feira

    Tempo Temperatura Precipitação Vento Pressão Humidade
    00:00 +16°C° 0 mm 2 m/s 744 mmHg 91%
    01:00 +16°C° 0 mm 2 m/s 744 mmHg 93%
    02:00 +15°C° 0 mm 2 m/s 744 mmHg 96%
    03:00 +15°C° 0 mm 2 m/s 744 mmHg 96%
    04:00 +15°C° 0 mm 2 m/s 744 mmHg 96%
    05:00 +15°C° 0 mm 2 m/s 744 mmHg 96%
    06:00 +16°C° 0 mm 2 m/s 744 mmHg 92%
    07:00 +17°C° 0 mm 3 m/s 744 mmHg 88%
    08:00 +19°C° 0 mm 3 m/s 745 mmHg 83%
    09:00 +20°C° 0 mm 3 m/s 745 mmHg 76%
    10:00 +22°C° 0 mm 4 m/s 744 mmHg 69%
    11:00 +25°C° 0 mm 4 m/s 744 mmHg 62%
    12:00 +26°C° 0 mm 4 m/s 744 mmHg 60%
    13:00 +26°C° 0 mm 4 m/s 744 mmHg 57%
    14:00 +27°C° 0 mm 4 m/s 743 mmHg 54%
    15:00 +26°C° 0 mm 4 m/s 743 mmHg 59%
    16:00 +25°C° 0 mm 3 m/s 743 mmHg 64%
    17:00 +24°C° 0 mm 3 m/s 742 mmHg 69%
    18:00 +22°C° 0 mm 3 m/s 742 mmHg 71%
    19:00 +21°C° 0 mm 3 m/s 742 mmHg 73%
    20:00 +19°C° 0 mm 3 m/s 741 mmHg 75%
    21:00 +19°C° 0 mm 4 m/s 741 mmHg 75%
    22:00 +18°C° 0 mm 4 m/s 741 mmHg 74%
    23:00 +18°C° 0 mm 4 m/s 740 mmHg 74%

    Depois de amanhã, 22 Setembro, Sábado

    Tempo Temperatura Precipitação Vento Pressão Humidade
    00:00 +18°C° 0 mm 4 m/s 740 mmHg 73%
    01:00 +18°C° 0 mm 4 m/s 739 mmHg 72%
    02:00 +17°C° 0 mm 5 m/s 739 mmHg 72%
    03:00 +17°C° 0 mm 5 m/s 738 mmHg 70%
    04:00 +17°C° 0 mm 5 m/s 738 mmHg 69%
    05:00 +17°C° 0 mm 5 m/s 737 mmHg 67%
    06:00 +17°C° 0 mm 5 m/s 737 mmHg 68%
    07:00 +17°C° 0 mm 5 m/s 737 mmHg 68%
    08:00 +17°C° 0 mm 5 m/s 737 mmHg 68%
    09:00 +15°C° 0.7 mm 5 m/s 738 mmHg 74%
    10:00 +14°C° 0.7 mm 5 m/s 738 mmHg 80%
    11:00 +12°C° 0.7 mm 4 m/s 738 mmHg 86%
    12:00 +12°C° 0.4 mm 4 m/s 739 mmHg 87%
    13:00 +12°C° 0.4 mm 3 m/s 739 mmHg 87%
    14:00 +12°C° 0.4 mm 3 m/s 740 mmHg 88%
    15:00 +12°C° 0.2 mm 3 m/s 740 mmHg 87%
    16:00 +12°C° 0.2 mm 3 m/s 740 mmHg 86%
    17:00 +12°C° 0.2 mm 3 m/s 740 mmHg 86%
    18:00 +11°C° 0.1 mm 3 m/s 740 mmHg 85%
    19:00 +11°C° 0.1 mm 3 m/s 740 mmHg 84%
    20:00 +10°C° 0.1 mm 3 m/s 740 mmHg 84%
    21:00 +10°C° 0 mm 3 m/s 740 mmHg 84%
    22:00 +9°C° 0 mm 3 m/s 740 mmHg 84%
    23:00 +9°C° 0 mm 3 m/s 740 mmHg 84%

    23 Setembro, Domingo

    Tempo Temperatura Precipitação Vento Pressão Humidade
    00:00 +9°C° 0 mm 3 m/s 740 mmHg 86%
    01:00 +8°C° 0 mm 3 m/s 740 mmHg 88%
    02:00 +7°C° 0 mm 2 m/s 739 mmHg 90%
    03:00 +7°C° 0 mm 3 m/s 739 mmHg 90%
    04:00 +7°C° 0 mm 3 m/s 739 mmHg 90%
    05:00 +7°C° 0 mm 3 m/s 738 mmHg 90%
    06:00 +7°C° 0 mm 4 m/s 738 mmHg 86%
    07:00 +7°C° 0 mm 4 m/s 738 mmHg 83%
    08:00 +8°C° 0 mm 5 m/s 738 mmHg 80%
    09:00 +9°C° 0 mm 5 m/s 738 mmHg 75%
    10:00 +10°C° 0 mm 5 m/s 738 mmHg 70%
    11:00 +13°C° 0 mm 5 m/s 738 mmHg 65%
    12:00 +13°C° 0.2 mm 5 m/s 737 mmHg 64%
    13:00 +13°C° 0.2 mm 6 m/s 737 mmHg 64%
    14:00 +13°C° 0.2 mm 6 m/s 737 mmHg 64%
    15:00 +12°C° 0.1 mm 5 m/s 737 mmHg 67%
    16:00 +11°C° 0.1 mm 4 m/s 737 mmHg 70%
    17:00 +11°C° 0.1 mm 3 m/s 737 mmHg 73%
    18:00 +10°C° 0.2 mm 3 m/s 737 mmHg 77%
    19:00 +9°C° 0.2 mm 3 m/s 737 mmHg 81%
    20:00 +8°C° 0.2 mm 3 m/s 737 mmHg 85%
    21:00 +8°C° 0 mm 3 m/s 737 mmHg 87%
    22:00 +7°C° 0 mm 3 m/s 737 mmHg 88%
    23:00 +7°C° 0 mm 3 m/s 737 mmHg 90%

    24 Setembro, Segunda-feira

    Tempo Temperatura Precipitação Vento Pressão Humidade
    00:00 +7°C° 0 mm 2 m/s 736 mmHg 91%
    01:00 +7°C° 0 mm 2 m/s 736 mmHg 93%
    02:00 +6°C° 0 mm 2 m/s 736 mmHg 94%
    03:00 +6°C° 0 mm 2 m/s 735 mmHg 95%
    04:00 +6°C° 0 mm 2 m/s 734 mmHg 95%
    05:00 +7°C° 0 mm 1 m/s 734 mmHg 96%
    06:00 +6°C° 0.6 mm 2 m/s 733 mmHg 95%
    07:00 +7°C° 0.6 mm 3 m/s 732 mmHg 94%
    08:00 +7°C° 0.6 mm 3 m/s 731 mmHg 93%
    09:00 +6°C° 2 mm 4 m/s 729 mmHg 93%
    10:00 +6°C° 2 mm 5 m/s 728 mmHg 93%
    11:00 +5°C° 2 mm 6 m/s 727 mmHg 93%
    12:00 +5°C° 4.1 mm 6 m/s 726 mmHg 93%
    13:00 +5°C° 4.1 mm 6 m/s 724 mmHg 94%
    14:00 +5°C° 4.1 mm 6 m/s 723 mmHg 94%
    15:00 +4°C° 3.8 mm 6 m/s 723 mmHg 94%
    16:00 +4°C° 3.8 mm 7 m/s 722 mmHg 94%
    17:00 +4°C° 3.8 mm 7 m/s 722 mmHg 94%
    18:00 +4°C° 2.1 mm 7 m/s 723 mmHg 93%
    19:00 +4°C° 2.1 mm 8 m/s 723 mmHg 92%
    20:00 +4°C° 2.1 mm 8 m/s 724 mmHg 91%
    21:00 +4°C° 1.2 mm 8 m/s 725 mmHg 90%
    22:00 +4°C° 1.2 mm 8 m/s 726 mmHg 89%
    23:00 +4°C° 1.2 mm 8 m/s 727 mmHg 88%

    25 Setembro, Terça-feira

    Tempo Temperatura Precipitação Vento Pressão Humidade
    00:00 +4°C° 0.4 mm 8 m/s 728 mmHg 87%
    01:00 +4°C° 0.4 mm 8 m/s 729 mmHg 86%
    02:00 +3°C° 0.4 mm 7 m/s 730 mmHg 85%
    03:00 +3°C° 0 mm 7 m/s 731 mmHg 84%
    04:00 +3°C° 0 mm 7 m/s 732 mmHg 84%
    05:00 +3°C° 0 mm 7 m/s 733 mmHg 83%
    06:00 +3°C° 0 mm 7 m/s 734 mmHg 81%
    07:00 +3°C° 0 mm 7 m/s 735 mmHg 78%
    08:00 +3°C° 0 mm 7 m/s 735 mmHg 76%
    09:00 +4°C° 0 mm 7 m/s 736 mmHg 71%
    10:00 +5°C° 0 mm 7 m/s 737 mmHg 65%
    11:00 +5°C° 0 mm 7 m/s 738 mmHg 60%
    12:00 +6°C° 0.1 mm 7 m/s 738 mmHg 57%
    13:00 +8°C° 0.1 mm 7 m/s 739 mmHg 54%
    14:00 +8°C° 0.1 mm 7 m/s 739 mmHg 51%
    15:00 +8°C° 0 mm 6 m/s 740 mmHg 55%
    16:00 +7°C° 0 mm 4 m/s 741 mmHg 59%
    17:00 +8°C° 0 mm 3 m/s 741 mmHg 64%
    18:00 +7°C° 0 mm 3 m/s 742 mmHg 66%
    19:00 +5°C° 0 mm 3 m/s 742 mmHg 69%
    20:00 +4°C° 0 mm 3 m/s 743 mmHg 72%
    21:00 +4°C° 0 mm 3 m/s 743 mmHg 73%
    22:00 +4°C° 0 mm 3 m/s 744 mmHg 75%
    23:00 +3°C° 0 mm 3 m/s 744 mmHg 76%
    Mostrar mais